Location: Unspecified
(0.0000°N, 0.0000°E)
Time: 06:26:53

Vanguard 3 - Pass Details

Date: 08 December 2017
Orbit: 507 x 3265 km, 33.4° (Epoch: 21 March)

Event Time Altitude Azimuth Distance (km) Brightness Sun altitude
Rises 20:51:32 0° 314° (NW) 4,346 11.0 -40.5°
Reaches altitude 10° 20:53:58 10° 317° (NW) 3,659 10.5 -41.1°
Enters shadow 20:57:31 29° 325° (NW) 2,820 9.8 -41.8°
Maximum altitude 21:04:05 68° 39° (NE) 2,341 - -43.2°
Drops below altitude 10° 21:21:28 10° 119° (ESE) 5,953 - -46.9°
Exits shadow 21:23:25 - 120° (ESE) 6,413 11.5 -47.3°
Sets 21:26:39 0° 121° (ESE) 7,150 11.8 -47.9°
